EN

Hourly Weather La Chapelle-Saint-Ursin

Today, 25 July, Sunday

Time Temperature Precipitation Wind Pressure Humidity
00:00 +16°C° 0 mm 3 mps 745 mmHg 87%
01:00 +16°C° 0 mm 3 mps 744 mmHg 89%
02:00 +16°C° 0 mm 3 mps 744 mmHg 91%
03:00 +14°C° 0 mm 3 mps 744 mmHg 94%
04:00 +15°C° 0 mm 4 mps 744 mmHg 91%
05:00 +17°C° 0 mm 4 mps 744 mmHg 88%
06:00 +17°C° 0 mm 4 mps 744 mmHg 85%
07:00 +17°C° 0 mm 5 mps 744 mmHg 81%
08:00 +19°C° 0 mm 5 mps 744 mmHg 77%
09:00 +21°C° 0 mm 5 mps 744 mmHg 73%
10:00 +21°C° 0.4 mm 6 mps 744 mmHg 70%
11:00 +22°C° 0.4 mm 6 mps 744 mmHg 67%
12:00 +23°C° 0.4 mm 7 mps 744 mmHg 64%
13:00 +24°C° 0.2 mm 7 mps 744 mmHg 61%
14:00 +24°C° 0.2 mm 6 mps 744 mmHg 57%
15:00 +26°C° 0.2 mm 6 mps 744 mmHg 54%
16:00 +25°C° 0.2 mm 5 mps 744 mmHg 59%
17:00 +23°C° 0.2 mm 4 mps 744 mmHg 64%
18:00 +22°C° 0.2 mm 3 mps 744 mmHg 70%
19:00 +20°C° 0 mm 3 mps 744 mmHg 73%
20:00 +19°C° 0 mm 3 mps 745 mmHg 77%
21:00 +18°C° 0 mm 2 mps 745 mmHg 80%
22:00 +17°C° 0 mm 3 mps 745 mmHg 84%
23:00 +17°C° 0 mm 3 mps 746 mmHg 87%

Tomorrow, 26 July, Monday

Time Temperature Precipitation Wind Pressure Humidity
00:00 +16°C° 0 mm 3 mps 746 mmHg 91%
01:00 +16°C° 0 mm 3 mps 746 mmHg 92%
02:00 +14°C° 0 mm 3 mps 746 mmHg 94%
03:00 +15°C° 0 mm 2 mps 746 mmHg 96%
04:00 +14°C° 0 mm 3 mps 746 mmHg 95%
05:00 +16°C° 0 mm 3 mps 747 mmHg 93%
06:00 +16°C° 0 mm 3 mps 747 mmHg 91%
07:00 +17°C° 0 mm 3 mps 747 mmHg 86%
08:00 +19°C° 0 mm 4 mps 747 mmHg 81%
09:00 +20°C° 0 mm 4 mps 747 mmHg 76%
10:00 +21°C° 0.1 mm 4 mps 747 mmHg 72%
11:00 +22°C° 0.1 mm 4 mps 747 mmHg 67%
12:00 +24°C° 0.1 mm 3 mps 747 mmHg 63%
13:00 +25°C° 0.1 mm 3 mps 747 mmHg 60%
14:00 +25°C° 0.1 mm 3 mps 747 mmHg 57%
15:00 +26°C° 0.1 mm 3 mps 747 mmHg 54%
16:00 +25°C° 0 mm 3 mps 747 mmHg 56%
17:00 +25°C° 0 mm 3 mps 747 mmHg 59%
18:00 +24°C° 0 mm 3 mps 747 mmHg 61%
19:00 +22°C° 0 mm 3 mps 747 mmHg 64%
20:00 +21°C° 0 mm 2 mps 747 mmHg 68%
21:00 +20°C° 0 mm 2 mps 748 mmHg 71%
22:00 +19°C° 0 mm 2 mps 748 mmHg 74%
23:00 +19°C° 0 mm 2 mps 748 mmHg 77%

Day after tomorrow, 27 July, Tuesday

Time Temperature Precipitation Wind Pressure Humidity
00:00 +18°C° 0 mm 3 mps 748 mmHg 79%
01:00 +17°C° 0 mm 2 mps 748 mmHg 82%
02:00 +17°C° 0 mm 2 mps 748 mmHg 84%
03:00 +16°C° 0 mm 2 mps 748 mmHg 86%
04:00 +17°C° 0 mm 2 mps 748 mmHg 86%
05:00 +17°C° 0 mm 2 mps 748 mmHg 86%
06:00 +17°C° 0 mm 2 mps 748 mmHg 85%
07:00 +19°C° 0 mm 3 mps 748 mmHg 79%
08:00 +20°C° 0 mm 3 mps 748 mmHg 73%
09:00 +21°C° 0 mm 3 mps 748 mmHg 66%
10:00 +24°C° 0 mm 3 mps 748 mmHg 60%
11:00 +25°C° 0 mm 3 mps 748 mmHg 54%
12:00 +26°C° 0 mm 3 mps 748 mmHg 48%
13:00 +25°C° 0.1 mm 4 mps 748 mmHg 53%
14:00 +23°C° 0.1 mm 5 mps 748 mmHg 59%
15:00 +22°C° 0.1 mm 6 mps 748 mmHg 65%
16:00 +20°C° 0.8 mm 5 mps 748 mmHg 75%
17:00 +18°C° 0.8 mm 3 mps 748 mmHg 85%
18:00 +16°C° 0.8 mm 2 mps 747 mmHg 94%
19:00 +16°C° 0.1 mm 2 mps 748 mmHg 95%
20:00 +16°C° 0.1 mm 2 mps 748 mmHg 95%
21:00 +16°C° 0.1 mm 2 mps 748 mmHg 95%
22:00 +15°C° 0 mm 2 mps 748 mmHg 95%
23:00 +15°C° 0 mm 2 mps 748 mmHg 95%

28 July, Wednesday

Time Temperature Precipitation Wind Pressure Humidity
00:00 +14°C° 0 mm 2 mps 748 mmHg 95%
01:00 +14°C° 0 mm 2 mps 748 mmHg 95%
02:00 +14°C° 0 mm 2 mps 748 mmHg 94%
03:00 +13°C° 0 mm 2 mps 748 mmHg 94%
04:00 +14°C° 0 mm 2 mps 748 mmHg 93%
05:00 +14°C° 0 mm 2 mps 748 mmHg 91%
06:00 +15°C° 0 mm 1 mps 748 mmHg 89%
07:00 +17°C° 0 mm 2 mps 748 mmHg 82%
08:00 +19°C° 0 mm 2 mps 748 mmHg 74%
09:00 +21°C° 0 mm 2 mps 748 mmHg 67%
10:00 +22°C° 0 mm 3 mps 748 mmHg 62%
11:00 +24°C° 0 mm 3 mps 747 mmHg 58%
12:00 +25°C° 0 mm 3 mps 747 mmHg 54%
13:00 +25°C° 0 mm 3 mps 747 mmHg 54%
14:00 +26°C° 0 mm 4 mps 747 mmHg 53%
15:00 +26°C° 0 mm 4 mps 747 mmHg 53%
16:00 +25°C° 0 mm 3 mps 747 mmHg 56%
17:00 +25°C° 0 mm 3 mps 747 mmHg 59%
18:00 +24°C° 0 mm 2 mps 746 mmHg 62%
19:00 +23°C° 0 mm 2 mps 747 mmHg 66%
20:00 +21°C° 0 mm 2 mps 747 mmHg 70%
21:00 +20°C° 0 mm 2 mps 747 mmHg 73%
22:00 +19°C° 0 mm 2 mps 747 mmHg 78%
23:00 +17°C° 0 mm 3 mps 747 mmHg 83%

29 July, Thursday

Time Temperature Precipitation Wind Pressure Humidity
00:00 +16°C° 0 mm 3 mps 747 mmHg 87%
01:00 +14°C° 0 mm 3 mps 747 mmHg 90%
02:00 +14°C° 0 mm 3 mps 747 mmHg 92%
03:00 +14°C° 0 mm 2 mps 747 mmHg 94%
04:00 +14°C° 0 mm 2 mps 748 mmHg 93%
05:00 +15°C° 0 mm 2 mps 748 mmHg 91%
06:00 +15°C° 0 mm 2 mps 748 mmHg 90%
07:00 +17°C° 0 mm 3 mps 749 mmHg 81%
08:00 +18°C° 0 mm 3 mps 749 mmHg 73%
09:00 +20°C° 0 mm 3 mps 749 mmHg 65%
10:00 +21°C° 0 mm 3 mps 749 mmHg 59%
11:00 +24°C° 0 mm 3 mps 749 mmHg 53%
12:00 +25°C° 0 mm 3 mps 749 mmHg 47%
13:00 +25°C° 0 mm 3 mps 749 mmHg 45%
14:00 +26°C° 0 mm 3 mps 748 mmHg 43%
15:00 +27°C° 0 mm 3 mps 748 mmHg 41%
16:00 +26°C° 0 mm 3 mps 748 mmHg 45%
17:00 +25°C° 0 mm 3 mps 748 mmHg 50%
18:00 +24°C° 0 mm 3 mps 748 mmHg 54%
19:00 +21°C° 0 mm 2 mps 748 mmHg 59%
20:00 +21°C° 0 mm 1 mps 748 mmHg 63%
21:00 +19°C° 0 mm 1 mps 748 mmHg 68%
22:00 +18°C° 0 mm 1 mps 748 mmHg 70%
23:00 +18°C° 0 mm 1 mps 748 mmHg 71%

30 July, Friday

Time Temperature Precipitation Wind Pressure Humidity
00:00 +16°C° 0 mm 1 mps 748 mmHg 73%
01:00 +15°C° 0 mm 1 mps 748 mmHg 75%
02:00 +15°C° 0 mm 1 mps 748 mmHg 77%
03:00 +14°C° 0 mm 2 mps 747 mmHg 79%
04:00 +14°C° 0 mm 2 mps 748 mmHg 76%
05:00 +15°C° 0 mm 2 mps 748 mmHg 73%
06:00 +15°C° 0 mm 2 mps 748 mmHg 70%
07:00 +17°C° 0 mm 3 mps 748 mmHg 64%
08:00 +19°C° 0 mm 3 mps 749 mmHg 58%
09:00 +21°C° 0 mm 4 mps 749 mmHg 52%
10:00 +22°C° 0 mm 4 mps 749 mmHg 47%
11:00 +23°C° 0 mm 4 mps 749 mmHg 42%
12:00 +26°C° 0 mm 4 mps 749 mmHg 38%
13:00 +26°C° 0 mm 4 mps 749 mmHg 37%
14:00 +26°C° 0 mm 4 mps 748 mmHg 36%
15:00 +27°C° 0 mm 4 mps 748 mmHg 35%
16:00 +26°C° 0 mm 3 mps 748 mmHg 39%
17:00 +25°C° 0 mm 3 mps 748 mmHg 43%
18:00 +24°C° 0 mm 2 mps 748 mmHg 47%
19:00 +21°C° 0 mm 2 mps 749 mmHg 49%
20:00 +21°C° 0 mm 1 mps 749 mmHg 51%
21:00 +19°C° 0 mm 1 mps 749 mmHg 53%
22:00 +18°C° 0 mm 1 mps 749 mmHg 55%
23:00 +18°C° 0 mm 1 mps 749 mmHg 56%
Show more